User: anonymous   Login
Location: Lake Superior Provincial Park
(47.3335°N, 84.6162°W)
Time: 01:04:23
(UTC-04:00)
Language:

Cosmos 2333 Rocket - Orbit

View from above orbital plane
View from above orbital plane
View from above satellite
View from above satellite

Ground track
Ground track

The orbit data is extracted from the following two-line orbital elements,

1 24298U 96051B   16235.72163039  .00000120  00000-0  91035-4 0  9999
2 24298  70.8412 331.1561 0019102 263.0508  96.8439 14.12424841 29670
Epoch (UTC): 22 August 2016 17:19:08
Eccentricity: 0.0019102
inclination: 70.8412°
perigee height: 837 km
apogee height: 865 km
right ascension of ascending node: 331.1561°
argument of perigee: 263.0508°
revolutions per day: 14.12424841
mean anomaly at epoch: 96.8439°
orbit number at epoch: 2967

The dashed part of the orbit path shows where the satellite is in the earth's shadow,  

DLR